[TLELIST] Archives

 

[list_settings.list_name] Current TLEs

August 29th 2012 PDT

HST 1 20580U 90037B 12241.12217144 .00000671 00000-0 36594-4 0 600 2 20580 028.4704 032.7181 0003386 103.9948 256.1080 15.02711964 25564 ISS (ZARYA) 1 25544U 98067A 12242.29088056 .00008156 00000-0 14944-3 0 2021 2 25544 051.6476 117.6163 0015054 012.9923 096.7764 15.50161568789389 CXO 1 25867U 99040B 12242.99694708 -.00000104 +00000-0 +00000-0 0 00013 2 25867 073.1768 359.3543 8739512 278.1792 000.5728 00.37803995014961 ____________________________________________________________________ These 2-Line ...Continue Reading

[list_settings.list_name] Current TLEs

August 28th 2012 PDT

HST 1 20580U 90037B 12241.12217144 .00000671 00000-0 36594-4 0 600 2 20580 028.4704 032.7181 0003386 103.9948 256.1080 15.02711964 25564 ISS (ZARYA) 1 25544U 98067A 12241.07164990 .00008770 00000-0 16018-3 0 1955 2 25544 051.6468 123.6564 0014938 008.8884 132.4216 15.50142514789191 CXO 1 25867U 99040B 12242.99708928 -.00000104 00000-0 00000+0 0 7828 2 25867 073.1768 359.3543 8739514 278.1792 000.5922 00.37803958 9434 ____________________________________________________________________ These 2-Line ...Continue Reading

[list_settings.list_name] Current TLEs

August 27th 2012 PDT

HST 1 20580U 90037B 12239.86027758 .00001567 00000-0 10213-3 0 590 2 20580 028.4700 040.9886 0003481 091.6702 268.4295 15.02710791 25370 ISS (ZARYA) 1 25544U 98067A 12240.46833333 .00008627 00000-0 15776-3 0 1918 2 25544 051.6473 126.6447 0014962 006.9357 005.3473 15.50131043789100 CXO 1 25867U 99040B 12240.35170860 -.00000155 +00000-0 +00000-0 0 00015 2 25867 073.1554 359.5251 8740129 278.1663 000.5860 00.37800098014952 ____________________________________________________________________ These 2-Line ...Continue Reading

[list_settings.list_name] Current TLEs

August 26th 2012 PDT

HST 1 20580U 90037B 12237.93422186 .00001039 00000-0 63591-4 0 581 2 20580 028.4712 053.5928 0003283 074.6332 285.4643 15.02705711 25080 ISS (ZARYA) 1 25544U 98067A 12239.32479259 .00008152 00000-0 14965-3 0 1837 2 25544 051.6462 132.3126 0014932 002.5040 104.1036 15.50108217788923 CXO 1 25867U 99040B 12240.35220332 -.00000155 00000-0 00000+0 0 7819 2 25867 073.1554 359.5250 8740119 278.1665 000.6541 00.37800141 9424 ____________________________________________________________________ These 2-Line ...Continue Reading

[list_settings.list_name] Current TLEs

August 25th 2012 PDT

HST 1 20580U 90037B 12237.93422186 .00001039 00000-0 63591-4 0 581 2 20580 028.4712 053.5928 0003283 074.6332 285.4643 15.02705711 25080 ISS (ZARYA) 1 25544U 98067A 12238.35793034 .00007672 00000-0 14141-3 0 1752 2 25544 051.6462 137.1040 0015028 359.1806 108.4204 15.50090195788771 CXO 1 25867U 99040B 12240.35220332 -.00000155 00000-0 00000+0 0 7819 2 25867 073.1554 359.5250 8740119 278.1665 000.6541 00.37800141 9424 ____________________________________________________________________ These 2-Line ...Continue Reading

[list_settings.list_name] Current TLEs

August 23rd 2012 PDT

HST 1 20580U 90037B 12234.94550393 .00001009 00000-0 61377-4 0 577 2 20580 028.4707 073.1580 0003091 042.7334 317.3482 15.02700656 24630 ISS (ZARYA) 1 25544U 98067A 12236.34009632 .00013011 00000-0 22601-3 0 1656 2 25544 051.6463 147.1004 0014809 350.1855 009.9360 15.50063643192612 CXO 1 25867U 99040B 12237.70752170 -.00000320 00000-0 00000+0 0 7807 2 25867 073.1357 359.6919 8740499 278.1527 000.7549 00.37804323 9410 ____________________________________________________________________ These 2-Line ...Continue Reading

[list_settings.list_name] Current TLEs

August 22nd 2012 PDT

HST 1 20580U 90037B 12234.94550393 .00001009 00000-0 61377-4 0 577 2 20580 028.4707 073.1580 0003091 042.7334 317.3482 15.02700656 24630 ISS (ZARYA) 1 25544U 98067A 12235.39200325 .00008642 00000-0 14065-3 0 1561 2 25544 051.6442 151.8002 0006979 349.5043 114.7271 15.53511867788312 CXO 1 25867U 99040B 12237.70752170 -.00000320 00000-0 00000+0 0 7807 2 25867 073.1357 359.6919 8740499 278.1527 000.7549 00.37804323 9410 ____________________________________________________________________ These 2-Line ...Continue Reading

[list_settings.list_name] Current TLEs

August 21st 2012 PDT

HST 1 20580U 90037B 12234.01567818 .00001015 00000-0 61843-4 0 569 2 20580 028.4713 079.2448 0002989 031.8537 328.2220 15.02699281 24492 ISS (ZARYA) 1 25544U 98067A 12234.30564297 .00006932 00000-0 11441-3 0 1499 2 25544 051.6448 157.2080 0006822 345.4096 159.2037 15.53487081788149 CXO 1 25867U 99040B 12235.06382136 -.00000294 +00000-0 +00000-0 0 00012 2 25867 073.1106 359.9078 8739118 278.1279 000.9833 00.37807137014938 ____________________________________________________________________ These 2-Line ...Continue Reading

[list_settings.list_name] Current TLEs

August 20th 2012 PDT

HST 1 20580U 90037B 12229.89786683 .00001341 00000-0 85663-4 0 548 2 20580 028.4702 106.1921 0003073 343.1305 016.9198 15.02693548 23879 ISS (ZARYA) 1 25544U 98067A 12233.39706111 .00006181 00000-0 10289-3 0 1440 2 25544 051.6450 161.7327 0006703 341.7823 118.1896 15.53470888788000 CXO 1 25867U 99040B 12235.06413652 -.00000294 00000-0 00000+0 0 7791 2 25867 073.1106 359.9078 8739121 278.1279 001.0267 00.37807045 9409 ____________________________________________________________________ These 2-Line ...Continue Reading

[list_settings.list_name] Current TLEs

August 19th 2012 PDT

HST 1 20580U 90037B 12229.89786683 .00001341 00000-0 85663-4 0 548 2 20580 028.4702 106.1921 0003073 343.1305 016.9198 15.02693548 23879 ISS (ZARYA) 1 25544U 98067A 12232.43273387 .00005640 00000-0 94581-4 0 1399 2 25544 051.6440 166.5348 0006669 337.3753 126.0455 15.53455791787856 CXO 1 25867U 99040B 12232.41821885 -.00000142 +00000-0 +00000-0 0 00019 2 25867 073.0869 000.1025 8735698 278.1317 000.8472 00.37801614014923 ____________________________________________________________________ These 2-Line ...Continue Reading
  • This mailing list is a public mailing list - anyone may join or leave, at any time.
  • This mailing list is announce-only.

International Space Station (ISS) / Hubble Space Telescope (HST) / Chandra X-Ray Observatory Orbital Data via EMAIL

Privacy Policy:

Private list